This is the latest recevied weather packets stored in our database for station/object K5RWS. If no packets are shown the sender has not sent any weather packets the latest 10 day(s).
| Time | Temp. | Humidity | Pressure | Rain* | Wind** | Luminosity | Snow |
|---|---|---|---|---|---|---|---|
| 1777240822 | 23.33° C | 14% | 1006.6 hPa | 0 mm | - | 475 W/m² | - |
| 1777240520 | 23.33° C | 14% | 1006.6 hPa | 0 mm | - | 493 W/m² | - |
| 1777240216 | 23.33° C | 14% | 1006.3 hPa | 0 mm | - | 478 W/m² | - |
| 1777239915 | 23.33° C | 15% | 1006.5 hPa | 0 mm | - | 508 W/m² | - |
| 1777239612 | 23.33° C | 15% | 1006.5 hPa | 0 mm | - | 522 W/m² | - |
| 1777239309 | 23.33° C | 15% | 1006.5 hPa | 0 mm | - | 536 W/m² | - |
| 1777239005 | 23.89° C | 14% | 1006.5 hPa | 0 mm | - | 546 W/m² | - |
| 1777238702 | 23.89° C | 15% | 1006.6 hPa | 0 mm | - | 546 W/m² | - |
| 1777238399 | 23.89° C | 14% | 1006.5 hPa | 0 mm | - | 562 W/m² | - |
| 1777238095 | 23.89° C | 14% | 1006.7 hPa | 0 mm | - | 570 W/m² | - |
| 1777237793 | 25° C | 14% | 1006.7 hPa | 0 mm | - | 574 W/m² | - |
| 1777237489 | 23.89° C | 14% | 1006.8 hPa | 0 mm | - | 549 W/m² | - |
| 1777237186 | 23.89° C | 14% | 1006.8 hPa | 0 mm | - | 590 W/m² | - |
| 1777236884 | 23.89° C | 14% | 1006.8 hPa | 0 mm | - | 561 W/m² | - |
| 1777236579 | 23.89° C | 14% | 1007 hPa | 0 mm | - | 542 W/m² | - |
| 1777236276 | 23.89° C | 14% | 1007.1 hPa | 0 mm | - | 635 W/m² | - |
| 1777235972 | 23.89° C | 15% | 1007.1 hPa | 0 mm | - | 661 W/m² | - |
| 1777235668 | 23.89° C | 15% | 1007.1 hPa | 0 mm | - | 655 W/m² | - |
| 1777235365 | 23.89° C | 14% | 1007 hPa | 0 mm | - | 662 W/m² | - |
| 1777235061 | 24.44° C | 15% | 1007.2 hPa | 0 mm | - | 666 W/m² | - |
| 1777234757 | 23.89° C | 15% | 1007.2 hPa | 0 mm | - | 685 W/m² | - |
| 1777234454 | 23.89° C | 15% | 1007 hPa | 0 mm | - | 675 W/m² | - |
| 1777234153 | 23.89° C | 16% | 1007.3 hPa | 0 mm | - | 700 W/m² | - |
| 1777233849 | 23.89° C | 16% | 1007.1 hPa | 0 mm | - | 723 W/m² | - |
| 1777233546 | 23.89° C | 16% | 1007.4 hPa | 0 mm | - | 351 W/m² | - |
* Rain latest hour (hover to see other rain measurements)
** Current wind speed in m/s (hover to see current wind gust speed)